Weather at Newport Regional Airport

Public forecast

Using degrees Fahrenheit for public forecast. Weather courtesy of forecast.io.

Current aviation weather report (METAR) for Newport Regional Airport

Retrieved UTC (0 seconds ago):

Closest aviation forecast (TAF) to Newport Regional Airport

Closest forecast is Jonesboro Municipal Airport, 28.3 nm (52.5 km) ENE. Retrieved 2021/01/22 18:39 UTC (2 hours ago):

TAF KJBR 221737Z 2218/2318 06010G18KT P6SM SKC FM230000 04005KT P6SM SKC FM231500 08009KT P6SM SKC